Location: Casteau
(50.5142°N, 4.0161°E)
Time: 04:17:59
(UTC+00:00)

Vanguard 2 Rocket - All Passes

Search period start: 06 August 2021 00:00
Search period end: 16 August 2021 00:00
Orbit: 555 x 3325 km, 32.9° (Epoch: 05 August)

Date Brightness Start Highest point End Pass type
(mag) Time Alt. Az. Time Alt. Az. Time Alt. Az.
10 Aug - 05:50:42 10° SSW 05:51:20 10° S 05:51:56 10° S daylight
11 Aug - 04:49:40 10° SSW 04:52:09 12° S 04:54:19 10° SSE daylight
12 Aug - 03:49:10 10° SSW 03:52:51 14° S 03:55:51 10° SSE visible
12 Aug - 06:03:41 10° SSW 06:04:48 11° SSW 06:05:51 10° S daylight
13 Aug - 02:48:48 10° SSW 02:53:22 14° S 02:57:00 10° SE visible
13 Aug - 05:02:17 10° SW 05:05:40 14° S 05:08:27 10° SSE daylight
14 Aug - 01:48:40 10° SSW 01:53:42 14° SSE 01:57:44 10° SE visible
14 Aug - 04:01:22 10° SW 04:06:24 17° S 04:10:14 10° SE daylight
15 Aug - 00:49:03 10° S 00:53:50 13° SSE 00:57:50 10° SE visible
15 Aug - 03:00:28 10° SW 03:06:56 19° S 03:11:39 10° SE visible
15 Aug - 05:15:30 10° SW 05:19:06 14° SSW 05:22:02 10° SSE daylight
15 Aug - 23:50:50 10° SSE 23:53:47 11° SSE 23:56:28 10° SE visible
